Location: Aciu?a
(46.2833°N, 22.4500°E)
Time: 05:19:30
(UTC+00:00)

CZ-2C R/B - Pass Details

Date: 25 October 2021
Orbit: 703 x 908 km, 98.1° (Epoch: 04 December)

Event Time Altitude Azimuth Distance (km) Brightness Sun altitude
Rises 15:54:52 0° 176° (S) 3,524 6.5 -5.6°
Reaches altitude 10° 15:57:19 10° 179° (S) 2,584 5.9 -6.0°
Maximum altitude 16:03:03 61° 260° (W) 1,017 4.0 -7.0°
Drops below altitude 10° 16:08:41 10° 340° (NNW) 2,536 5.8 -7.9°
Sets 16:11:05 0° 344° (NNW) 3,454 6.5 -8.3°
